EHI
1 1 0 1 1 1 0 0 0 0 0 0 0 0 0 0 0 2 6 9 14 18 17 12 8 8 13 18 19 17 15 13 10 6 3 1 0 0 0 0 0 0 0 0 0 0 0 0 0
1 0 0 0 0 0 0 0 0 0 0 0 0 0 0 0 1 4 9 13 15 17 17 14 12 10 13 18 20 17 14 12 10 6 3 1 0 0 0 0 0 0 0 0 0 0 0 0 0
0 0 0 0 0 0 0 0 0 0 0 0 0 1 2 4 5 9 15 18 17 16 18 19 17 14 15 19 21 18 14 11 9 6 3 1 0 0 0 0 0 0 0 0 0 0 0 0 0
0 0 0 0 0 0 0 0 0 0 0 0 0 2 6 10 11 16 23 25 20 16 18 21 21 17 17 19 21 19 15 12 9 6 2 0 0 0 0 0 0 0 0 0 0 0 0 0 0
0 0 0 0 0 0 0 0 0 0 1 1 1 4 10 16 20 26 30 28 21 15 17 22 22 20 18 18 19 18 16 13 9 6 3 1 0 0 0 0 0 0 0 0 0 0 0 0 0
0 0 0 0 0 0 0 0 0 1 3 3 2 5 14 26 35 37 34 28 21 17 19 23 22 19 18 17 16 16 15 12 8 5 3 2 1 0 0 0 0 0 0 0 0 0 0 0 0
0 0 0 0 0 0 0 0 1 3 5 5 3 5 21 42 52 47 37 28 23 20 21 22 19 15 14 14 13 12 12 9 7 5 4 3 1 0 0 0 0 0 0 0 0 0 0 0 0
0 0 0 0 0 0 0 0 1 3 5 5 4 7 28 57 67 60 48 35 27 24 22 22 19 14 11 10 9 9 8 7 6 5 4 2 1 0 0 0 0 0 0 0 0 0 0 0 0
0 0 0 0 0 0 0 1 2 3 4 4 7 17 42 68 76 72 62 48 37 29 25 23 23 19 12 8 7 7 6 5 5 5 4 2 1 0 0 0 0 0 1 1 0 0 0 0 0
0 0 0 0 0 0 0 1 2 3 3 5 14 33 57 74 78 76 70 60 51 41 31 25 24 22 16 11 9 7 5 5 4 4 3 2 2 1 0 1 1 1 2 1 0 0 0 0 0
0 0 0 0 0 0 0 1 2 1 1 5 19 45 65 74 76 74 70 65 60 51 38 28 24 22 20 17 13 10 8 6 5 4 4 3 3 2 1 2 1 1 1 1 0 0 0 0 0
0 0 0 0 0 0 0 1 1 1 1 5 22 47 66 72 72 71 68 63 58 52 42 32 27 25 25 24 19 15 11 8 7 6 5 4 3 3 3 3 1 1 0 0 0 0 0 0 0
0 0 0 0 0 0 0 1 2 2 2 6 23 46 61 65 66 67 66 59 53 48 42 36 32 29 31 33 29 19 14 12 10 8 5 3 4 6 6 4 2 1 0 0 0 0 0 0 0
0 0 0 0 0 0 0 0 2 3 5 9 22 40 52 57 61 63 63 57 50 45 41 36 32 33 36 38 33 24 18 17 12 9 6 3 4 7 8 6 3 2 1 0 0 0 0 0 0
0 0 0 0 0 0 0 0 3 7 9 12 21 35 46 52 57 58 56 54 48 42 39 34 31 34 37 37 33 26 20 17 13 9 6 3 3 6 8 5 3 2 2 1 0 0 0 0 0
0 0 0 0 0 0 0 1 4 9 11 13 21 33 43 47 49 49 48 47 44 40 37 34 32 33 36 37 33 26 20 17 14 9 5 3 1 3 5 4 3 4 4 2 1 0 0 0 0
0 0 0 0 0 0 0 1 5 8 9 12 21 31 39 42 43 42 42 42 40 37 36 35 34 35 37 37 34 28 22 18 14 8 4 2 1 2 3 4 4 5 6 4 2 1 1 0 0
0 0 0 0 0 0 0 1 4 6 7 11 20 29 34 38 40 39 39 38 36 35 36 36 36 37 37 36 32 27 21 16 12 7 3 2 2 2 3 3 4 6 7 5 3 1 1 0 0
0 0 0 0 0 0 0 1 3 4 5 10 18 25 28 33 38 40 38 37 36 37 36 36 37 37 37 35 29 24 19 14 11 8 5 3 1 1 2 4 5 5 6 5 3 1 0 0 0
0 0 0 0 0 0 0 0 2 3 5 8 15 22 24 27 34 39 39 38 39 38 35 33 34 32 32 32 29 25 22 16 11 10 7 3 1 0 1 3 3 3 3 3 3 2 1 0 0
0 0 0 0 0 0 0 1 2 2 3 7 12 19 23 23 27 31 33 35 37 36 30 27 28 26 25 27 26 24 22 15 9 9 8 4 1 0 1 1 1 1 1 1 2 2 1 0 0
0 0 0 0 0 0 0 1 1 1 2 5 11 18 23 22 19 20 23 27 32 30 25 23 24 22 20 22 21 17 15 10 7 8 9 6 2 0 0 0 0 0 0 0 1 1 0 0 0
0 0 0 0 0 0 0 0 0 0 1 4 10 17 22 21 17 15 18 22 26 26 24 24 25 21 19 18 15 11 10 8 7 9 11 8 4 1 0 0 0 0 0 0 0 0 0 0 0
0 0 0 0 0 0 0 0 0 0 0 2 8 15 20 20 19 19 22 24 24 23 24 26 24 20 17 14 10 7 8 9 9 9 10 9 5 1 0 0 0 0 1 1 1 0 0 0 0
0 0 0 0 0 0 0 0 0 0 0 1 5 11 17 18 20 23 27 28 25 22 23 24 22 17 11 7 5 5 8 10 10 8 8 7 5 1 0 0 0 1 2 2 1 0 0 0 0
0 0 0 0 0 0 0 0 0 0 0 0 2 8 15 17 18 21 25 26 23 19 19 21 18 13 9 7 7 7 9 11 10 7 5 5 3 1 1 1 1 1 2 1 1 0 0 0 0
0 0 0 0 0 0 0 0 0 0 0 0 2 8 15 16 16 18 21 21 17 14 16 17 14 12 11 11 10 8 8 8 8 6 3 2 2 1 1 1 1 1 2 1 0 0 0 0 0
0 0 0 0 0 0 0 0 0 0 0 0 2 7 13 16 17 20 22 19 15 13 14 13 12 11 11 10 8 6 6 5 6 4 2 0 0 0 0 0 0 1 1 0 0 0 0 0 0
0 0 0 0 0 0 0 0 0 0 0 0 1 4 9 13 16 21 24 22 18 15 13 11 10 9 9 7 5 4 4 4 4 3 1 0 0 0 0 0 0 0 0 0 0 0 0 0 0
0 0 0 0 0 0 0 0 0 0 0 0 0 1 5 9 13 19 24 25 20 15 12 9 8 8 7 6 5 4 3 3 3 2 1 0 0 0 0 0 0 0 0 0 0 0 0 0 0
Wind_Speed
10 8 6 6 8 5 1 3 2 3 3 3 3 1 1 2 3 6 8 16 18 19 19 19 16 15 15 15 15 15 14 14 14 14 13 13 13 12 12 12 12 13 13 13 13 13 14 14 14
7 6 6 7 7 3 3 3 2 3 4 4 4 2 1 3 5 8 11 16 19 19 19 18 18 16 16 15 15 15 14 14 14 13 13 13 12 12 12 12 12 12 13 13 13 13 13 13 13
7 7 7 6 4 2 3 3 3 4 4 4 4 2 2 4 6 8 12 18 19 18 18 19 19 17 16 15 15 14 14 14 14 13 13 12 12 12 12 12 13 12 13 13 13 13 13 13 13
6 7 7 8 5 0 1 1 1 4 5 4 3 4 5 5 4 8 16 19 19 18 18 20 19 17 16 16 15 14 14 14 13 13 13 12 12 12 12 12 12 12 12 12 12 12 12 12 11
7 7 8 7 4 1 1 1 3 4 4 4 4 3 6 5 5 12 18 19 19 18 18 20 19 17 16 16 15 14 14 14 13 13 12 12 12 12 12 12 12 12 12 12 11 11 11 10 10
6 6 8 6 4 2 2 2 4 5 4 4 4 3 6 6 9 15 18 17 17 17 18 19 18 17 16 15 15 14 14 13 13 13 12 12 12 12 12 12 12 12 11 11 10 10 9 9 9
8 7 7 4 3 4 2 2 4 3 5 4 3 3 7 8 11 15 16 16 16 16 16 17 17 16 16 15 14 14 13 13 12 12 12 12 12 12 12 12 11 11 11 10 9 9 9 8 9
6 7 7 6 5 4 4 3 2 4 3 2 3 4 6 11 13 15 15 14 14 14 15 15 15 15 15 14 14 13 13 13 12 12 12 12 12 11 11 11 11 10 10 9 9 8 8 8 9
7 9 7 5 4 3 4 4 3 2 4 4 3 1 7 16 17 16 15 14 14 14 13 14 15 14 13 13 14 14 13 12 12 11 12 11 9 10 9 11 11 10 9 9 8 8 7 8 9
8 9 4 1 3 2 3 4 3 6 7 7 7 6 11 17 18 18 17 17 17 16 14 13 14 14 13 10 11 10 10 10 9 9 10 7 6 5 7 11 9 9 9 9 7 6 6 6 7
9 8 3 4 4 5 6 6 5 8 8 7 8 11 15 17 17 17 17 17 17 16 15 13 12 12 11 9 9 6 6 7 8 9 8 6 6 5 6 6 7 7 8 6 7 6 3 2 3
9 8 8 6 4 6 7 7 7 10 6 1 5 12 16 18 18 18 17 16 15 15 15 13 13 11 10 8 8 7 6 6 6 8 8 7 4 4 5 3 5 5 3 3 3 2 3 3 3
12 8 7 8 8 8 9 10 9 8 5 3 6 13 17 17 17 16 15 15 15 15 15 13 13 12 10 8 7 7 6 7 7 6 7 6 5 5 5 3 3 4 4 4 3 2 3 3 3
7 9 9 9 8 8 9 9 9 7 6 6 9 12 15 16 16 15 15 15 16 16 15 14 14 13 11 9 7 6 6 5 6 6 7 7 5 5 5 5 4 3 3 2 2 4 3 2 2
7 10 10 8 7 6 8 11 10 6 6 8 10 11 13 14 15 15 15 15 15 15 15 15 14 13 12 10 9 7 6 7 6 6 7 7 6 5 5 5 5 4 3 4 2 3 3 3 3
10 11 10 7 6 5 9 9 6 5 8 8 9 10 11 12 14 14 14 14 14 14 15 14 13 13 12 10 8 6 6 7 6 6 6 7 6 6 5 4 4 4 4 3 3 3 3 2 2
11 10 8 5 6 5 9 9 2 5 8 8 9 10 11 12 13 13 14 14 14 14 14 14 13 13 12 11 8 7 6 6 6 5 5 6 6 6 5 4 4 5 4 3 3 3 3 3 2
7 7 7 6 4 6 10 10 4 6 8 8 9 10 11 13 14 13 13 13 13 14 14 13 13 12 12 10 7 6 6 6 6 5 5 7 6 6 5 5 5 6 4 4 3 3 2 2 2
6 8 8 5 2 7 9 9 6 5 8 8 9 10 11 11 12 12 12 13 14 14 14 14 14 13 11 9 9 8 7 6 6 6 7 7 6 7 6 5 6 5 5 4 5 4 5 3 2
9 10 8 5 2 7 8 9 6 5 7 7 8 10 10 11 11 12 13 14 14 14 15 15 14 14 13 10 8 7 7 6 6 6 7 7 7 7 7 6 5 5 4 5 5 4 3 3 3
11 10 8 6 5 7 8 10 6 6 6 7 8 9 10 11 13 13 14 15 15 15 15 13 14 14 13 12 8 7 6 5 6 7 7 7 7 7 6 6 6 5 6 5 5 5 5 4 4
10 7 8 7 8 5 5 8 4 5 7 9 9 10 11 12 12 13 14 15 15 14 14 13 13 13 13 12 11 11 10 9 8 7 7 7 8 8 7 7 6 6 5 5 6 5 4 4 4
8 4 7 8 9 9 7 9 2 4 6 6 8 10 11 12 12 13 13 14 14 13 13 13 13 12 13 12 12 12 10 8 7 8 8 7 7 7 8 7 6 6 5 5 4 4 4 4 4
6 6 7 8 9 10 5 7 5 2 3 3 5 8 10 11 12 12 12 13 12 13 12 13 13 13 13 13 13 13 12 11 10 10 9 8 7 7 8 8 7 6 5 5 5 5 5 4 3
10 9 8 9 8 6 2 7 4 2 1 2 3 6 9 11 12 13 13 14 13 14 14 13 13 13 13 13 13 13 12 12 12 11 10 9 7 7 8 8 7 6 5 5 5 5 5 5 5
12 12 9 7 6 4 5 6 2 2 1 1 3 5 8 11 12 13 14 14 14 14 14 14 14 13 13 13 12 12 12 10 9 10 9 8 7 7 9 9 8 7 7 6 5 5 5 4 4
10 11 9 9 10 8 5 4 4 2 2 2 4 6 8 10 12 13 14 14 14 14 15 15 15 14 14 14 13 12 12 10 9 10 9 8 7 7 10 9 9 8 7 6 6 4 5 5 5
9 8 7 9 9 10 7 6 3 1 1 1 3 5 7 10 12 13 13 13 13 13 14 14 15 14 14 13 12 11 11 11 10 9 9 9 9 8 10 10 9 8 8 7 7 6 5 5 5
9 10 9 8 8 10 8 2 4 2 3 2 1 3 7 10 12 13 13 13 13 13 14 14 14 14 13 13 13 12 12 11 11 10 10 10 9 10 10 10 9 9 9 8 7 6 7 7 6
7 8 9 9 8 9 10 3 5 3 2 2 1 2 5 8 11 13 14 14 13 14 14 14 14 14 14 13 13 13 12 12 11 11 11 11 11 11 11 10 10 10 9 9 9 8 8 8 7
Wind_Direction
197 203 225 237 238 231 115 85 62 104 105 91 130 155 13 24 357 57 114 149 148 146 142 149 148 145 142 139 136 135 133 131 128 125 122 120 116 114 110 106 103 102 101 101 100 101 102 103 105
191 198 230 240 255 219 117 95 97 69 85 131 152 178 163 88 58 102 139 148 150 146 147 151 147 147 143 140 138 136 134 131 129 126 123 120 118 116 112 109 106 103 103 102 101 102 102 104 106
192 225 255 248 251 279 92 96 81 98 132 167 155 149 44 76 109 132 143 152 151 148 149 144 151 149 145 142 139 137 134 132 131 129 126 123 120 117 113 110 108 106 104 103 102 103 103 104 107
207 220 236 248 228 290 343 73 115 158 163 181 177 135 96 69 121 138 147 156 153 152 151 144 154 150 147 145 142 139 136 135 133 131 128 126 121 117 114 111 109 108 106 104 104 105 106 106 108
237 246 235 230 221 178 234 273 213 197 177 179 198 143 112 97 122 143 153 158 157 155 150 147 154 152 150 147 145 142 140 138 136 133 130 127 123 119 115 113 111 109 108 106 106 106 108 109 109
225 239 240 222 177 175 194 196 211 208 188 175 197 171 106 116 141 152 157 160 159 156 152 146 154 154 152 150 148 145 142 140 137 133 130 127 124 119 117 116 114 112 110 108 106 106 106 110 112
250 245 250 246 191 179 149 181 210 208 206 187 200 179 123 139 148 155 157 162 159 157 152 151 157 157 154 152 149 146 144 141 138 135 131 127 125 123 120 118 116 113 110 108 105 104 106 111 117
265 258 232 224 217 167 135 177 205 233 193 146 207 218 143 149 153 153 156 161 161 161 157 158 161 160 160 156 152 149 147 144 141 139 137 132 129 129 128 130 119 117 114 110 106 105 106 112 120
247 248 228 211 218 158 151 200 182 222 177 179 199 347 104 142 153 154 158 163 166 167 163 166 162 164 166 160 153 156 152 148 150 147 145 156 154 142 149 115 122 124 119 113 108 107 114 129 132
230 244 232 315 279 262 201 232 205 204 205 200 181 137 135 152 161 164 168 170 171 172 171 171 165 167 168 161 156 165 163 157 167 150 157 162 134 135 125 118 126 126 125 123 113 118 157 197 146
227 251 269 250 256 273 250 238 225 233 230 221 200 166 160 164 169 172 176 177 175 173 172 172 166 170 169 162 163 167 159 157 164 155 158 151 150 148 142 143 145 146 154 146 139 175 163 125 96
235 245 259 266 270 261 254 244 232 239 256 279 197 168 168 173 177 179 179 181 177 175 173 172 165 169 173 168 164 167 163 163 162 154 171 161 163 156 144 150 144 153 147 137 144 132 112 100 114
231 248 248 255 256 257 254 244 244 244 242 202 170 168 177 180 180 181 178 179 178 177 174 171 170 170 170 168 173 170 165 165 156 160 169 168 165 164 148 145 153 155 144 154 148 140 129 137 138
235 249 257 256 249 241 242 239 235 234 220 196 183 183 187 185 181 179 179 179 181 181 176 171 174 171 171 170 172 167 167 163 162 165 165 178 170 159 160 161 162 153 155 137 150 144 149 159 123
249 251 242 228 226 220 235 231 226 218 201 199 194 190 189 188 183 183 182 183 183 182 175 173 175 174 174 175 175 171 169 170 171 164 167 178 175 163 171 166 170 157 146 141 161 145 155 170 157
231 237 235 194 209 199 236 248 190 180 201 205 196 189 188 188 188 185 184 184 183 182 176 175 177 177 177 177 180 175 175 173 174 169 169 177 176 172 180 175 167 159 166 164 157 176 169 160 166
216 232 238 198 194 211 238 266 190 188 210 208 199 191 189 187 188 186 184 183 181 179 175 174 178 178 178 177 178 179 174 180 176 174 171 173 178 181 190 180 156 173 175 178 186 159 188 172 183
223 241 239 236 192 238 250 263 244 206 219 215 201 193 191 191 189 184 181 181 180 179 175 175 178 181 177 175 175 177 179 183 180 176 175 180 181 185 191 180 170 185 180 181 179 153 178 199 208
271 262 258 261 265 260 261 269 264 213 217 217 204 195 194 192 183 179 181 181 178 178 179 179 181 181 178 174 178 180 181 183 179 177 177 183 187 186 193 185 170 194 183 184 181 183 176 197 198
245 253 254 248 231 266 274 273 262 222 222 222 209 199 194 184 177 178 181 180 180 181 182 181 182 183 183 181 180 179 173 179 177 175 174 184 187 188 190 189 184 188 177 181 184 199 210 182 201
238 248 260 277 278 243 266 253 218 197 209 214 213 204 195 190 184 180 181 180 180 183 184 182 180 182 185 180 174 170 166 176 178 180 179 182 182 187 192 185 191 182 191 180 190 193 210 200 189
237 242 264 268 267 257 263 278 217 194 205 210 211 206 198 191 186 183 183 181 183 184 182 180 179 182 182 180 180 180 184 186 182 178 173 175 183 183 183 185 184 189 191 171 194 191 205 210 198
248 255 255 262 263 267 239 268 242 187 224 209 203 203 198 190 188 185 184 183 182 180 181 180 178 180 181 184 185 187 189 185 171 170 164 176 177 183 184 181 178 184 191 183 194 178 214 207 214
225 228 237 243 249 250 253 269 271 222 250 226 193 193 193 188 186 184 181 178 177 176 177 176 177 180 183 185 188 190 184 178 172 173 170 178 174 180 183 182 179 187 183 178 188 191 195 218 211
215 230 230 224 226 243 180 258 278 340 331 280 216 188 184 183 183 181 180 177 175 176 177 175 176 180 182 184 186 187 184 180 178 178 178 179 175 178 178 181 180 180 176 181 186 192 198 195 193
216 233 248 261 257 246 200 248 286 37 4 259 197 184 180 182 183 183 181 178 177 176 175 175 177 179 181 183 183 185 184 184 182 185 179 181 182 177 171 178 178 178 180 182 182 192 188 188 197
214 231 259 269 270 271 247 241 248 213 200 182 171 176 182 183 182 183 182 180 180 177 177 177 178 180 183 183 180 182 185 188 181 174 180 180 179 172 174 179 178 179 180 182 189 193 189 182 195
245 238 231 249 264 265 253 245 254 176 5 161 177 181 179 181 179 180 181 179 179 177 177 180 179 182 182 180 181 181 185 185 177 178 183 179 178 173 174 180 180 180 181 183 195 188 181 185 190
202 219 239 252 264 272 273 263 63 11 355 354 167 179 178 182 180 177 178 177 177 177 177 178 178 179 180 181 181 179 181 181 180 183 182 178 177 175 179 181 182 182 184 185 193 201 180 193 189
234 235 233 245 249 257 274 276 82 49 28 14 37 139 173 182 181 177 175 174 177 179 179 180 181 180 180 178 178 180 180 180 183 185 182 180 178 181 184 185 186 188 187 188 193 199 194 197 198